Showing default

RTU MIREA 1, 61785

Orbit data source: Space-Track

RTU MIREA 1, 61785 is a Commonwealth of Independent States-origin payload satellite in SSO that was launched on Mon, 04 Nov 2024 UTC via a SOYUZ-2-1B launch vehicle from the Vostochny Cosmodrome (VOSTO). Payload-class satellites include a variety of spacecraft equipped with specific instruments for various scientific and technological missions. These include communications satellites like Starlink; space stations such as the ISS; scientific satellites like the Hubble; Earth observation satellites from companies like Planet Labs, Umbra, and HawkEye 360; GPS; miniature CubeSats for education and research; and military/defense satellites.

Loading next visibility...
Identifier
61785, 2024-199BC
Orbit
SSO
Country
Flag of CISCIS
Related business
Manufacturer
MIREA
Mission
Operational Amateur Technology
Bus & Motor
CUBESAT 3U, Unknown motor
Mass
4 kg wet, 4 kg dry
Launch date (UTC)
2024-11-04 (2 years ago)
Launch vehicle
SOYUZ-2-1B
Launch site
Vostochny Cosmodrome (VOSTO)
Object type
Payload
Rocket body
Debris
Shape & HBR
Box, 0.2 m
Radar Cross Section
0.035 m², Medium (>0.1 m² and < 1m²)

Expand to show TLE details & history
Last TLE update: 5 hours ago

TLE from 5 hours ago
0 RTU MIREA 1
1 61785U 24199BC  26264.56739552  .00085726  00000-0  58629-3 0  9995
2 61785  97.2717 144.8173 0002243 251.6067 108.4954 15.74528688149568
Epoch: 2026-09-21T13:37Z
TLE epoch observation values (Epoch: 2026-09-21T13:37:02.972Z)
Latitude
-0.00007°
Longitude
-59.89044°
Altitude
349.619 km
Speed
7.699 km/s
True Right ascension
09h 39m 16s
True Declination
0° 00' 00"
Sunlit
Object was in daylight at epoch
Visualization orbit readout
Latitude
Unknown
Longitude
Unknown
Altitude
Unknown
Speed
Unknown
Apparent Right ascension
Unknown
Apparent Declination
Unknown
Sunlit
N/A
Visualization observer readout
Local Sidereal Time
11:58:20
Azimuth
Unknown
Elevation
Unknown
Doppler factor
Unknown
Orbital elements
Apogee altitude
344.368 km
Perigee altitude
341.353 km
Semi-major axis
6,720.997 km
Eccentricity
0.00022
Inclination
97.2717°
RAAN
144.8173°
Arg. of periapsis
251.6067°
True anomaly
108.51977°
Mean anomaly
108.4954°
Eccentric anomaly
108.50759°
Mean motion
3.93906 °/min
Orbital period
91.39 mins
BSTAR
0.00058629
Loading maneuver chart data...
Computing Atmospheric mass density...
Loading historical data...
Loading historical data...
Loading historical data...
Loading historical data...
Loading historical data...
Loading historical data...
Loading historical data...

Documentation

Showing up to 5 results
|